Weather History for KNHK - February, 2013

Change the Weather History Date:

Thursday, February 28, 2013

  Actual Average Record
Temperature  
Mean Temperature 44 °F -  
Max Temperature 50 °F 45 °F 27 °F (2015)
Min Temperature 39 °F 28 °F 16 °F (2015)
Degree Days  
Heating Degree Days 20    
Moisture  
Dew Point 32 °F    
Average Humidity 64    
Maximum Humidity 86    
Minimum Humidity 39    
Precipitation  
Precipitation 0.07 in - - ()
Sea Level Pressure  
Sea Level Pressure 29.67 in    
Wind  
Wind Speed 5 mph (West)    
Max Wind Speed 15 mph    
Max Gust Speed 20 mph    
Visibility 10 miles    
Events Rain    
Averages and records for this station are not official NWS values.
T = Trace of Precipitation, MM = Missing Value Source: NWS Daily Summary

Daily Weather History Graph

Daily Weather History Graph

Search for Another Location

Airport or City:

Trip Planner

Search our weather history database for the weather conditions in past years. The results will help you decide how hot, cold, wet, or windy it might be!

Date:

Astronomy

Feb. 28, 2013 Rise Set
Actual Time 6:38 AM EST 5:58 PM EST
Civil Twilight 6:12 AM EST 6:24 PM EST
Nautical Twilight 5:41 AM EST 6:55 PM EST
Astronomical Twilight 5:10 AM EST 7:25 PM EST
Moon 9:18 PM EST (2/28) 7:50 AM EST (2/28)
Length of Visible Light 12h 12m
Length of Day
11h 19m
Waning Gibbous, 91% of the Moon is Illuminated
Feb 28
Waning Gibbous
Mar 4
Last Quarter
Mar 11
New
Mar 19
First Quarter
Mar 27
Full

Hourly Weather History & Observations

Time (EST) Temp. Windchill Dew Point Humidity Pressure Visibility Wind Dir Wind Speed Gust Speed Precip Events Conditions
12:52 AM 44.1 °F - 37.9 °F 79% 29.66 in 10.0 mi Calm Calm - N/A   Overcast
1:52 AM 45.0 °F - 37.0 °F 74% 29.65 in 10.0 mi Calm Calm - N/A   Overcast
2:52 AM 45.0 °F - 37.9 °F 76% 29.64 in 10.0 mi Calm Calm - 0.00 in Rain Light Rain
3:52 AM 45.0 °F 43.5 °F 37.0 °F 74% 29.62 in 10.0 mi SE 3.5 mph - 0.00 in   Overcast
4:52 AM 44.1 °F 42.5 °F 37.9 °F 79% 29.64 in 10.0 mi WSW 3.5 mph - N/A   Overcast
5:07 AM 44.6 °F 43.1 °F 39.2 °F 81% 29.64 in 10.0 mi WSW 3.5 mph - N/A   Overcast
5:16 AM 44.6 °F 40.7 °F 39.2 °F 81% 29.64 in 7.0 mi South 6.9 mph - 0.00 in Rain Light Rain
5:52 AM 44.1 °F 40.8 °F 37.9 °F 79% 29.65 in 8.0 mi NW 5.8 mph - 0.02 in Rain Light Rain
6:52 AM 43.0 °F 38.2 °F 37.0 °F 80% 29.67 in 8.0 mi NNW 8.1 mph - 0.00 in Rain Light Rain
7:52 AM 39.9 °F 32.9 °F 36.0 °F 86% 29.70 in 6.0 mi NW 11.5 mph - 0.03 in Rain Rain
8:52 AM 39.9 °F 35.1 °F 34.0 °F 79% 29.70 in 10.0 mi North 6.9 mph - 0.02 in   Mostly Cloudy
9:52 AM 41.0 °F - 34.0 °F 76% 29.69 in 10.0 mi Calm Calm - N/A   Mostly Cloudy
10:52 AM 43.0 °F 41.3 °F 34.0 °F 71% 29.68 in 10.0 mi WNW 3.5 mph - N/A   Mostly Cloudy
11:52 AM 46.9 °F - 30.9 °F 54% 29.68 in 10.0 mi North 4.6 mph - N/A   Mostly Cloudy
12:52 PM 46.9 °F - 32.0 °F 56% 29.65 in 10.0 mi SW 9.2 mph - N/A   Mostly Cloudy
1:52 PM 50.0 °F - 27.0 °F 41% 29.63 in 10.0 mi WNW 11.5 mph - N/A   Mostly Cloudy
2:52 PM 48.9 °F - 25.0 °F 39% 29.64 in 10.0 mi West 15.0 mph 19.6 mph N/A   Mostly Cloudy
3:52 PM 46.9 °F - 25.0 °F 42% 29.65 in 10.0 mi West 13.8 mph - N/A   Mostly Cloudy
4:00 PM - - - N/A% - - North - - N/A   Unknown
4:52 PM 46.0 °F 41.0 °F 28.9 °F 51% 29.66 in 10.0 mi West 10.4 mph - N/A   Mostly Cloudy
5:52 PM 44.1 °F 39.5 °F 27.0 °F 51% 29.68 in 10.0 mi West 8.1 mph - N/A   Scattered Clouds
6:52 PM 44.1 °F 39.5 °F 28.0 °F 53% 29.70 in 10.0 mi WSW 8.1 mph - N/A   Mostly Cloudy
7:52 PM 44.1 °F 40.8 °F 27.0 °F 51% 29.72 in 10.0 mi WSW 5.8 mph - N/A   Mostly Cloudy
8:52 PM 44.1 °F 39.5 °F 26.1 °F 49% 29.73 in 10.0 mi West 8.1 mph - N/A   Overcast
9:52 PM 43.0 °F 40.3 °F 27.0 °F 53% 29.73 in 10.0 mi West 4.6 mph - N/A   Overcast
10:52 PM 43.0 °F 38.2 °F 27.0 °F 53% 29.73 in 10.0 mi West 8.1 mph - N/A   Overcast
11:52 PM 43.0 °F 38.2 °F 26.1 °F 51% 29.73 in 10.0 mi West 8.1 mph - N/A   Overcast